Location: Jelcz-Laskowice
(51.0309°N, 17.3312°E)
Time: 23:28:28
(UTC+02:00)

ISS - Visible Passes

Search period start: 22 September 2018 00:00
Search period end: 02 October 2018 00:00
Orbit: 403 x 408 km, 51.6° (Epoch: 23 September)

Date Brightness Start Highest point End Pass type
(mag) Time Alt. Az. Time Alt. Az. Time Alt. Az.
22 Sep -1.8 20:27:44 10° SSW 20:28:53 16° S 20:28:53 16° S visible
23 Sep -1.8 19:36:57 10° S 19:38:37 13° SE 19:39:38 12° ESE visible
23 Sep -1.5 21:11:21 10° SW 21:12:21 18° SW 21:12:21 18° SW visible
24 Sep -3.2 20:19:43 10° SW 20:22:46 36° SSE 20:22:54 35° SE visible
25 Sep -2.5 19:28:17 10° SSW 19:31:01 24° SE 19:33:18 13° E visible
25 Sep -2.5 21:03:54 10° WSW 21:06:00 36° WSW 21:06:00 36° WSW visible
26 Sep -3.7 20:12:04 10° WSW 20:15:19 59° SSE 20:16:15 40° E visible
26 Sep -0.7 21:48:30 10° W 21:48:56 13° W 21:48:56 13° W visible
27 Sep -3.2 19:20:20 10° SW 19:23:28 41° SSE 19:26:26 11° E visible
27 Sep -3.0 20:56:33 10° W 20:59:06 50° W 20:59:06 50° W visible
28 Sep -3.9 20:04:36 10° WSW 20:07:55 85° SSE 20:09:12 34° E visible
28 Sep -0.8 21:41:10 10° W 21:41:52 15° W 21:41:52 15° W visible
29 Sep -3.7 19:12:42 10° WSW 19:15:58 67° SSE 19:19:14 10° E visible
29 Sep -3.2 20:49:11 10° W 20:51:54 56° WNW 20:51:54 56° WNW visible
30 Sep -3.8 19:57:11 10° W 20:00:30 80° N 20:01:54 32° E visible
30 Sep -0.9 21:33:45 10° W 21:34:34 16° W 21:34:34 16° W visible
01 Oct -3.8 19:05:11 10° W 19:08:30 89° NNW 19:11:49 10° E visible
01 Oct -3.3 20:41:46 10° W 20:44:32 60° WNW 20:44:32 60° WNW visible
